TimeEST,TemperatureF,Dew PointF,Humidity,Sea Level PressureIn,VisibilityMPH,Wind Direction,Wind SpeedMPH,Gust SpeedMPH,PrecipitationIn,Events,Conditions,WindDirDegrees,DateUTC
12:32 AM,46.4,41.0,81,30.04,10.0,SW,15.0,-,N/A,,Mostly Cloudy,230,2012-12-05 05:32:00
12:53 AM,46.0,41.0,83,30.04,10.0,WSW,12.7,21.9,N/A,,Mostly Cloudy,240,2012-12-05 05:53:00
1:14 AM,44.6,37.4,76,30.05,10.0,WSW,9.2,-,N/A,,Scattered Clouds,250,2012-12-05 06:14:00
1:53 AM,45.0,36.0,71,30.06,10.0,West,10.4,-,N/A,,Clear,260,2012-12-05 06:53:00
2:53 AM,44.1,34.0,68,30.08,10.0,West,11.5,-,N/A,,Clear,260,2012-12-05 07:53:00
3:53 AM,43.0,34.0,71,30.09,10.0,West,10.4,20.7,N/A,,Clear,270,2012-12-05 08:53:00
4:53 AM,42.1,35.1,76,30.11,10.0,West,11.5,20.7,N/A,,Scattered Clouds,280,2012-12-05 09:53:00
5:53 AM,39.9,35.1,83,30.14,10.0,NW,15.0,20.7,N/A,,Overcast,320,2012-12-05 10:53:00
6:03 AM,39.2,33.8,81,30.13,10.0,NW,12.7,20.7,N/A,,Overcast,320,2012-12-05 11:03:00
6:53 AM,37.9,30.9,76,30.18,10.0,NW,13.8,-,N/A,,Overcast,310,2012-12-05 11:53:00
7:53 AM,37.0,28.0,70,30.21,10.0,NW,13.8,-,N/A,,Overcast,310,2012-12-05 12:53:00
9:53 AM,34.0,21.0,59,30.27,10.0,WNW,13.8,21.9,N/A,,Mostly Cloudy,300,2012-12-05 14:53:00
10:53 AM,35.1,21.0,57,30.28,10.0,WNW,10.4,19.6,N/A,,Overcast,290,2012-12-05 15:53:00
11:53 AM,35.1,21.9,59,30.29,10.0,WNW,11.5,20.7,N/A,,Overcast,290,2012-12-05 16:53:00
12:53 PM,35.1,24.1,64,30.29,10.0,WNW,13.8,20.7,0.00,,Overcast,300,2012-12-05 17:53:00
1:53 PM,34.0,21.0,59,30.30,9.0,NW,15.0,26.5,0.00,,Overcast,310,2012-12-05 18:53:00
2:53 PM,34.0,21.0,59,30.31,10.0,NW,15.0,19.6,N/A,,Overcast,320,2012-12-05 19:53:00
3:53 PM,33.1,19.0,56,30.34,10.0,NW,15.0,20.7,N/A,,Overcast,320,2012-12-05 20:53:00
4:53 PM,33.1,19.0,56,30.36,10.0,WNW,9.2,-,N/A,,Mostly Cloudy,300,2012-12-05 21:53:00
5:53 PM,33.1,19.0,56,30.38,10.0,NW,10.4,-,N/A,,Overcast,320,2012-12-05 22:53:00
6:53 PM,33.1,19.9,59,30.39,10.0,North,9.2,-,N/A,,Overcast,360,2012-12-05 23:53:00
7:53 PM,32.0,19.9,61,30.39,10.0,North,8.1,-,N/A,,Overcast,360,2012-12-06 00:53:00
8:53 PM,30.0,21.0,69,30.38,10.0,NNE,9.2,-,N/A,,Overcast,30,2012-12-06 01:53:00
9:53 PM,28.0,19.9,72,30.38,10.0,NNE,3.5,-,N/A,,Partly Cloudy,30,2012-12-06 02:53:00
10:15 PM,28.4,19.4,69,30.36,10.0,Calm,Calm,-,N/A,,Mostly Cloudy,0,2012-12-06 03:15:00
10:53 PM,28.0,21.9,78,30.39,10.0,ESE,3.5,-,N/A,,Overcast,110,2012-12-06 03:53:00
11:53 PM,28.9,19.9,69,30.40,10.0,East,4.6,-,N/A,,Overcast,100,2012-12-06 04:53:00